Theta_e
316 316 315 316 319 311 310 316 316 315 316 319 319 319 319 316 314 314 314 312 313 313 314 314 313 315 315 317 317 318 320 323 328 329 330 330 330 331 331 331 331 330 330 330
317 316 311 311 314 317 315 314 315 316 316 317 316 317 315 314 314 315 316 314 312 310 310 311 314 315 314 315 317 317 318 320 325 328 329 329 329 329 331 331 332 331 330 330
313 311 312 312 315 319 319 318 315 313 315 314 314 312 314 312 313 310 311 311 310 310 311 311 311 313 315 315 316 315 315 316 319 325 328 328 328 328 328 328 329 329 329 328
314 309 312 314 315 316 317 316 314 316 315 313 310 307 306 307 309 312 311 311 311 311 310 310 311 311 311 313 315 317 317 315 318 325 328 328 327 327 327 327 328 328 328 328
312 311 311 313 313 315 314 316 317 315 316 317 315 317 311 313 313 313 312 310 309 309 309 309 308 309 310 313 317 317 314 316 321 326 328 328 328 328 327 328 327 327 327 328
310 310 308 309 311 315 312 314 315 315 318 317 312 315 309 310 313 312 314 312 310 309 309 305 305 306 307 314 320 321 321 323 325 327 328 328 328 328 327 328 328 328 328 328
312 311 312 310 313 313 314 313 311 316 319 315 310 314 311 308 309 310 311 310 308 308 304 303 303 303 303 304 308 317 321 323 327 328 328 328 328 328 328 328 329 329 328 328
313 314 311 311 312 314 316 314 310 310 311 312 310 315 312 309 309 308 307 307 308 305 303 302 301 300 301 300 300 301 303 305 309 316 319 324 326 327 327 328 328 328 328 328
313 312 308 311 313 312 315 317 310 312 309 311 311 310 312 311 311 311 310 307 308 303 301 300 299 298 298 297 297 297 298 298 299 300 301 301 302 304 305 310 313 312 315 316
308 310 308 310 313 312 313 312 316 315 313 311 313 313 313 312 311 309 309 308 305 301 299 298 297 296 296 295 295 294 295 295 296 296 296 297 297 297 297 298 298 298 299 300
304 306 308 311 314 315 315 316 313 312 312 312 310 308 308 311 310 310 308 306 302 300 298 296 294 293 293 293 292 292 291 292 293 293 294 294 294 294 295 294 295 295 295 296
304 305 309 311 307 309 313 314 314 315 315 314 313 312 306 307 308 307 306 301 299 297 294 293 292 291 290 290 291 290 289 289 289 290 291 291 292 292 292 292 292 292 293 294
308 309 311 312 310 309 311 312 313 312 307 314 316 313 306 306 305 305 302 299 297 295 294 293 291 290 289 288 288 288 286 286 286 287 288 288 289 290 289 288 289 289 290 291
309 309 311 310 309 308 312 311 311 313 315 313 312 311 307 306 306 303 299 297 296 294 294 293 290 289 287 286 286 285 284 284 284 284 285 286 287 287 285 285 286 286 286 287
310 312 310 308 305 307 310 311 311 312 313 312 311 309 309 305 304 301 297 295 293 291 290 289 287 286 285 284 283 283 282 282 282 282 283 284 283 282 282 282 283 283 284 284
309 312 310 310 306 306 308 308 310 311 312 312 310 308 307 302 299 297 297 295 292 289 287 285 283 283 281 281 281 279 279 280 280 281 280 280 279 279 279 279 280 280 281 282
310 311 311 311 307 307 309 309 308 310 311 311 312 311 304 301 303 298 295 292 289 286 285 283 281 280 279 279 278 277 277 278 278 278 277 277 277 277 277 277 278 278 279 279
310 310 311 309 309 311 308 303 307 308 309 309 309 306 304 301 288 285 286 287 285 284 282 280 279 278 277 276 276 276 276 276 276 276 275 275 275 275 276 276 276 276 276 277
308 310 312 311 311 307 304 300 303 306 307 305 309 293 287 286 287 282 281 281 280 280 279 278 277 276 275 275 275 276 275 275 275 275 274 274 274 274 274 275 275 275 275 276
309 309 311 304 310 311 305 298 296 304 308 296 301 292 288 291 300 289 280 279 279 277 277 276 275 275 275 274 274 275 275 274 274 273 273 273 273 273 273 274 274 274 274 275
310 310 311 306 309 306 299 292 292 306 304 288 291 292 289 292 285 280 278 277 277 276 276 274 274 274 273 273 273 274 274 273 272 272 272 272 272 272 273 273 273 273 273 274
310 311 311 306 306 307 287 292 302 294 284 284 283 283 281 278 278 277 277 276 275 275 274 273 273 273 272 272 272 272 272 271 270 270 270 270 270 271 272 271 271 272 272 272
307 306 305 305 303 283 281 282 283 283 282 280 280 280 279 277 276 276 275 275 274 274 273 272 272 272 271 270 270 271 270 269 269 268 268 268 269 269 269 270 270 270 271 271
294 292 293 293 285 281 279 278 278 279 279 278 278 277 277 276 276 275 275 275 273 272 271 271 271 270 270 269 268 268 267 267 267 266 267 267 267 267 268 269 269 269 270 271
294 294 289 285 281 279 279 278 277 277 276 276 276 276 276 276 276 275 273 272 271 271 269 269 269 269 268 267 266 266 265 265 265 265 265 266 266 266 267 267 268 269 270 270
286 294 299 301 284 287 281 278 277 277 276 275 275 275 275 274 274 273 272 270 270 269 268 268 267 266 266 265 265 264 264 263 263 263 263 264 264 264 265 266 266 267 268 269
Wind_Speed
7 4 14 12 13 3 6 5 5 3 3 4 9 15 16 8 6 10 12 10 13 14 22 26 30 27 26 24 26 25 25 27 27 29 29 27 32 36 37 38 36 34 32 30
5 20 5 7 6 8 3 3 4 4 5 6 6 13 15 9 9 13 16 13 13 10 14 22 26 25 22 22 20 19 22 25 28 31 32 26 22 31 39 38 38 37 35 33
10 2 15 11 9 12 11 14 4 3 2 2 4 13 10 9 16 7 10 13 9 14 15 9 16 19 18 19 21 22 25 27 28 31 29 26 21 20 20 28 32 35 35 34
11 5 9 2 14 14 13 8 6 3 4 4 2 10 5 3 4 5 8 8 13 13 7 6 14 18 17 18 19 21 24 24 28 29 28 28 23 22 21 21 26 25 25 27
8 10 13 10 7 13 5 8 13 6 5 3 4 4 4 1 4 4 6 8 7 7 7 6 6 8 11 11 13 13 14 17 20 24 27 28 26 23 18 15 15 18 19 20
6 3 10 12 7 17 7 6 5 3 4 8 9 10 15 7 7 5 5 5 5 5 2 5 8 11 16 14 10 5 2 4 9 16 19 23 24 23 17 15 17 18 18 20
4 8 2 5 7 4 8 8 3 5 5 10 9 7 24 3 1 7 7 8 5 5 6 5 6 13 19 25 24 21 17 15 6 4 11 16 19 18 18 18 18 18 18 19
13 7 12 5 8 7 16 13 6 8 6 4 5 11 11 6 13 12 7 8 7 7 6 6 7 14 19 24 27 30 31 31 26 21 16 9 4 1 6 10 12 14 16 17
13 10 2 6 7 15 9 17 7 3 2 2 5 7 8 8 7 6 7 6 8 7 7 8 12 17 19 25 28 29 31 33 32 30 28 27 24 21 17 14 10 8 7 7
6 2 4 7 6 12 8 11 9 9 6 7 5 5 9 2 8 7 7 7 7 7 9 9 12 16 20 24 26 30 31 30 29 28 27 25 24 22 21 19 18 16 14 13
8 4 0 11 16 18 7 9 8 5 7 7 6 8 7 11 12 8 8 9 10 10 10 9 12 16 20 23 25 27 28 27 27 25 23 22 22 21 20 21 20 19 18 18
11 5 5 15 3 12 20 17 15 7 9 10 2 6 1 5 6 7 7 9 9 11 10 8 12 14 18 20 20 21 23 25 23 21 20 21 20 20 21 22 22 22 23 22
15 6 4 3 0 1 14 12 13 6 2 9 10 12 3 4 5 8 13 9 11 11 9 8 10 12 14 16 16 17 21 21 22 21 20 20 20 20 21 23 24 25 25 26
21 7 17 15 13 8 10 20 19 19 13 18 14 18 6 5 9 8 8 8 9 9 9 8 7 11 12 14 14 14 18 18 21 19 18 21 21 19 22 23 24 25 26 27
11 12 17 20 3 5 9 19 25 21 25 18 25 15 22 9 10 12 10 10 10 8 8 8 8 9 11 11 12 16 19 18 16 15 16 17 20 22 22 24 26 27 27 27
7 4 10 16 10 7 4 12 16 25 29 21 14 7 17 6 9 8 12 12 10 9 8 7 7 9 10 11 13 13 12 14 17 16 16 19 21 23 22 24 25 26 27 28
10 8 7 17 17 13 9 18 20 18 23 25 19 30 6 5 17 15 12 10 11 10 8 7 7 8 9 10 10 11 12 13 13 13 16 19 19 19 21 24 26 29 29 28
16 15 7 4 10 14 12 7 22 21 18 21 16 8 12 8 6 8 5 8 11 9 7 7 7 8 9 9 11 10 11 12 13 14 14 15 17 20 23 23 23 26 27 28
20 17 9 6 11 3 4 7 10 13 23 13 25 7 7 12 7 2 5 6 9 8 9 8 7 7 8 10 10 9 11 12 13 16 18 21 23 23 23 23 24 26 26 28
14 16 11 2 5 9 6 4 2 7 14 10 10 14 14 13 9 5 9 10 10 10 9 8 7 7 9 11 11 11 11 13 15 17 18 20 21 21 21 23 24 27 27 27
9 11 16 7 4 5 2 4 0 10 7 3 4 11 15 9 1 16 13 10 12 11 10 8 9 9 11 11 11 11 11 14 16 17 17 18 20 21 20 24 27 28 31 31
12 9 7 2 3 8 2 4 10 3 3 6 4 5 13 16 13 12 12 11 12 11 10 9 9 9 9 11 10 10 10 13 15 18 20 23 24 23 23 26 29 29 29 29
1 5 7 6 4 2 3 4 3 2 5 5 7 9 16 16 12 12 10 10 11 11 9 8 8 7 7 8 8 8 10 14 16 23 26 24 26 24 25 24 25 25 24 25
2 3 4 4 2 3 4 6 6 7 10 10 11 10 12 16 14 14 11 9 10 9 8 6 5 4 3 6 7 9 11 13 17 20 21 22 22 24 23 23 22 23 23 26
2 4 5 3 3 4 4 6 11 13 13 14 11 12 13 14 13 12 10 9 9 7 5 3 4 4 5 9 9 12 14 16 18 20 22 22 22 23 25 23 23 25 25 27
4 6 5 5 12 3 6 16 17 16 14 13 14 13 11 13 12 12 8 9 7 5 3 3 4 6 9 13 14 16 16 15 19 19 19 21 23 25 24 26 29 25 28 30
Wind_Direction
188 177 212 190 200 148 167 177 186 213 229 185 232 248 251 240 236 242 244 242 253 263 274 273 278 272 271 266 263 254 253 255 248 238 230 229 233 240 245 248 251 251 249 246
184 230 170 175 194 208 174 180 220 270 230 188 253 255 264 218 230 231 241 241 241 246 267 271 274 273 271 270 265 259 256 258 251 243 236 225 231 240 247 250 252 251 251 250
194 238 168 170 181 200 220 224 168 202 327 247 304 271 226 241 234 230 243 247 251 241 255 269 283 283 283 276 274 272 269 258 253 244 234 230 231 240 238 242 249 252 253 255
229 201 168 150 202 185 219 193 169 164 66 244 19 280 251 273 220 209 239 232 245 254 260 258 271 286 295 288 279 272 264 256 246 237 223 220 218 226 238 244 253 257 259 260
206 167 179 205 201 183 217 154 182 156 185 11 217 297 259 207 273 235 252 244 247 255 249 279 325 345 342 317 290 276 262 248 241 235 227 224 223 234 240 249 255 260 265 264
167 169 182 197 158 179 142 88 67 138 160 246 220 200 263 216 197 215 222 246 257 252 66 71 56 46 37 34 30 19 334 262 236 231 230 231 237 235 236 245 253 260 268 272
188 222 215 147 128 138 159 140 146 207 207 233 156 179 250 275 111 182 204 241 273 100 103 68 43 46 44 49 57 68 74 61 70 213 230 235 243 249 252 259 264 266 267 269
196 215 190 188 179 173 190 184 163 193 207 203 143 226 239 208 223 241 235 262 161 129 103 85 56 59 57 54 57 64 69 68 75 81 77 80 70 314 273 278 282 283 282 286
195 227 216 180 168 159 190 210 175 81 53 82 215 285 295 198 223 220 220 174 160 135 112 94 66 62 59 59 58 62 65 68 70 72 73 73 72 70 67 68 65 47 26 346
194 163 192 178 146 217 171 162 189 216 204 227 244 258 239 209 240 231 188 178 153 119 102 87 72 65 64 65 66 67 67 62 64 65 65 64 64 63 61 57 50 44 33 21
162 139 277 146 205 187 163 193 205 175 202 201 233 244 203 227 227 209 190 175 140 122 112 97 79 68 67 64 59 58 56 54 54 52 49 48 47 45 43 39 31 23 16 11
189 140 162 202 309 210 208 201 189 194 203 232 224 255 250 273 219 182 152 124 115 110 104 92 83 72 60 53 48 46 42 42 40 39 38 34 31 27 22 15 7 1 355 353
176 197 158 136 81 279 211 220 207 213 74 197 205 237 103 81 121 131 131 130 125 119 109 99 82 69 60 50 44 37 30 28 25 24 27 23 19 13 6 356 352 348 345 342
175 188 213 212 212 133 196 209 210 209 225 232 224 242 223 190 168 137 125 126 128 122 117 106 83 68 57 44 39 35 20 15 19 4 15 17 8 359 351 348 346 344 341 338
192 210 207 232 184 174 196 201 210 208 221 216 235 223 244 189 185 168 148 134 132 116 100 90 79 61 45 37 27 27 21 2 12 359 5 18 353 346 350 349 347 345 342 337
197 218 181 233 249 212 210 208 204 212 223 226 243 233 246 148 122 151 164 154 142 131 108 93 75 63 43 28 24 16 8 3 8 9 2 2 358 347 350 350 346 343 340 337
193 198 192 221 210 218 233 217 209 211 221 213 217 232 140 190 176 175 163 151 140 134 123 95 70 49 39 29 16 12 6 7 14 10 4 0 353 341 346 349 349 345 340 336
189 197 195 218 153 218 236 210 207 210 219 221 229 250 187 165 104 88 74 131 129 128 111 80 60 45 36 26 18 17 14 15 14 10 1 352 345 348 350 348 344 338 336 329
199 191 217 201 203 313 265 195 176 188 234 205 215 144 117 121 95 65 87 87 109 101 90 80 60 55 42 30 18 21 21 16 9 2 357 354 353 348 345 344 340 335 327 323
185 199 210 162 189 203 248 170 101 110 249 188 189 162 155 150 181 169 145 122 107 97 87 76 66 69 51 28 22 24 20 10 6 355 351 349 347 342 338 336 333 330 327 324
187 193 207 180 203 280 159 152 252 148 240 109 147 158 156 169 52 123 117 106 104 102 91 76 71 65 43 25 21 21 9 4 350 346 344 342 343 338 334 331 334 331 330 326
176 172 200 131 146 251 159 102 184 155 60 112 94 112 113 120 119 115 118 120 114 105 90 71 70 60 42 27 21 10 1 344 340 341 340 343 342 339 334 331 331 330 326 323
215 205 165 195 202 44 37 46 12 3 135 118 108 112 126 124 124 123 121 117 110 102 90 74 69 61 40 19 10 356 341 337 335 340 343 338 336 335 332 327 322 320 320 316
320 327 102 128 181 147 121 78 65 76 96 102 107 111 119 122 127 124 122 118 109 94 83 76 77 70 30 0 354 344 336 333 332 334 331 331 328 327 327 323 320 318 319 317
174 117 131 69 123 107 216 159 135 117 113 111 109 114 117 121 122 124 122 117 113 112 100 81 51 23 347 337 340 343 339 339 339 335 332 330 327 324 321 320 317 314 310 308
191 160 185 224 177 159 162 166 152 134 137 131 128 115 110 121 121 118 110 113 118 112 77 36 1 340 328 332 341 345 344 343 336 328 326 323 323 322 320 317 314 312 309 309